Погода в Дмитриевке

Россия / Оренбургская область     52°00′21″N   55°31′14″E
темп.,
°C
ветер,
м/с
пор.,
м/с
влажн.,
%
обл.,
%
осадки,
мм/ч
давл.,
гПа
погр.,
м
13 мая, чт
чт1323:00+16в475355 0.0 1027102
02:00+15вюв365287 0.0 102684
05:00+13вюв345422 0.0 102754
08:00+17вюв475155 0.0 1027212
11:00+23ююв46344 0.0 1027829
14:00+26юв45270 0.0 10271758
17:00+26юв44260 0.0 10261924
20:00+22юв33423 0.0 102529
14 мая, пт
пт1423:00+18вюв35500 0.0 102658
02:00+16вюв33490 0.0 102636
05:00+15юв22510 0.0 102713
08:00+19юв24470 0.0 1028165
11:00+25ююв45340 0.0 1027704
14:00+28ю34260 0.0 10262037
17:00+28ю23250 0.0 10262350
20:00+25юв22390 0.0 102516
15 мая, сб
сб1523:00+20юв22420 0.0 102514
02:00+18юв22430 0.0 102511
05:00+17вюв22471 0.0 102611
08:00+20юв23451 0.0 1026135
11:00+26ююв33314 0.0 1025649
14:00+29ююв23233 0.0 10242429
17:00+29юв12215 0.0 10232858
20:00+25в33383 0.0 102225
16 мая, вс
вс1623:00+20вюв33430 0.0 102327
02:00+19юв22431 0.0 102311
05:00+18вюв22440 0.0 102311
08:00+21вюв23444 0.0 1024137
11:00+27юв34335 0.0 1023656
14:00+30ююв32258 0.0 10223000
17:00+30юв22235 0.0 10203326
20:00+26вюв333911 0.0 102035
17 мая, пн
пн1723:00+23св224214 0.0 102012
02:00+20юв224610 0.0 102018
05:00+19ююв334470 0.0 102040
08:00+22в124762 0.0 1021103
11:00+28вюв23357 0.1 1020821
14:00+31ю122686 0.0 10193527
17:00+27с223385 0.0 1018451
20:00+23вюв474372 0.0 101895